Time,TemperatureF,DewpointF,PressureIn,WindDirection,WindDirectionDegrees,WindSpeedMPH,WindSpeedGustMPH,Humidity,HourlyPrecipIn,Conditions,Clouds,dailyrainin,SolarRadiationWatts/m^2,SoftwareType,DateUTC
2013-02-05 00:00:00,31.5,22.8,29.84,SW,218,0.0,0.0,70,0.00,OVC,,0.00,0.0,WeatherDisplay:10.37,2013-02-05 05:00:00,
2013-02-05 00:01:00,31.5,22.8,29.84,SW,218,0.0,0.0,70,0.00,OVC,,0.00,0.0,WeatherDisplay:10.37,2013-02-05 05:01:00,
2013-02-05 00:06:00,31.3,23.0,29.85,SW,218,0.0,0.0,71,0.00,OVC,,0.00,0.0,WeatherDisplay:10.37,2013-02-05 05:06:00,
2013-02-05 00:11:00,31.2,22.9,29.85,SW,218,0.0,0.0,71,0.00,OVC,,0.00,0.0,WeatherDisplay:10.37,2013-02-05 05:11:00,
2013-02-05 00:16:00,31.0,23.0,29.85,SW,218,0.0,0.0,72,0.00,OVC,,0.00,0.0,WeatherDisplay:10.37,2013-02-05 05:16:00,
2013-02-05 00:21:00,30.9,23.3,29.84,SW,218,0.0,0.0,73,0.00,OVC,,0.00,0.0,WeatherDisplay:10.37,2013-02-05 05:21:00,
2013-02-05 00:26:00,30.6,23.3,29.84,SW,218,0.0,0.0,74,0.00,OVC,,0.00,0.0,WeatherDisplay:10.37,2013-02-05 05:26:00,
2013-02-05 00:31:00,30.4,23.4,29.85,SW,218,0.0,0.0,75,0.00,OVC,,0.00,0.0,WeatherDisplay:10.37,2013-02-05 05:31:00,
2013-02-05 00:36:00,30.4,23.4,29.84,SW,218,0.0,0.0,75,0.00,OVC,,0.00,0.0,WeatherDisplay:10.37,2013-02-05 05:36:00,
2013-02-05 00:41:00,30.4,23.7,29.84,SW,218,0.0,0.0,76,0.00,OVC,,0.00,0.0,WeatherDisplay:10.37,2013-02-05 05:41:00,
2013-02-05 00:46:00,30.6,23.9,29.84,SW,218,0.0,0.0,76,0.00,OVC,,0.00,0.0,WeatherDisplay:10.37,2013-02-05 05:46:00,
2013-02-05 00:51:00,30.6,23.9,29.84,SW,218,0.0,0.0,76,0.00,OVC,,0.00,0.0,WeatherDisplay:10.37,2013-02-05 05:51:00,
2013-02-05 00:56:00,30.6,23.6,29.85,SW,218,0.0,0.0,75,0.00,OVC,,0.00,0.0,WeatherDisplay:10.37,2013-02-05 05:56:00,
2013-02-05 01:01:00,30.7,23.7,29.84,SW,218,0.0,0.0,75,0.00,OVC,,0.00,0.0,WeatherDisplay:10.37,2013-02-05 06:01:00,
2013-02-05 01:06:00,30.9,24.2,29.84,SW,218,0.0,0.0,76,0.00,OVC,,0.00,0.0,WeatherDisplay:10.37,2013-02-05 06:06:00,
2013-02-05 01:11:00,30.9,24.2,29.84,SW,218,0.0,0.0,76,0.00,SCT,,0.00,0.0,WeatherDisplay:10.37,2013-02-05 06:11:00,
2013-02-05 01:16:00,30.9,24.2,29.84,SW,218,0.0,0.0,76,0.00,SCT,,0.00,0.0,WeatherDisplay:10.37,2013-02-05 06:16:00,
2013-02-05 01:21:00,31.0,24.3,29.84,SW,218,0.0,1.1,76,0.00,SCT,,0.00,0.0,WeatherDisplay:10.37,2013-02-05 06:21:00,
2013-02-05 01:26:00,31.2,24.5,29.84,SW,218,0.0,0.0,76,0.00,SCT,,0.00,0.0,WeatherDisplay:10.37,2013-02-05 06:26:00,
2013-02-05 01:31:00,31.3,24.6,29.84,SW,219,0.0,1.5,76,0.00,SCT,,0.00,0.0,WeatherDisplay:10.37,2013-02-05 06:31:00,
2013-02-05 01:36:00,31.3,24.9,29.84,SW,219,0.5,1.5,77,0.00,SCT,,0.00,0.0,WeatherDisplay:10.37,2013-02-05 06:36:00,
2013-02-05 01:41:00,31.3,25.2,29.84,SW,220,0.3,1.1,78,0.00,SCT,,0.00,0.0,WeatherDisplay:10.37,2013-02-05 06:41:00,
2013-02-05 01:46:00,31.3,25.5,29.84,SW,220,0.0,0.0,79,0.00,SCT,,0.00,0.0,WeatherDisplay:10.37,2013-02-05 06:46:00,
2013-02-05 01:51:00,31.3,25.8,29.84,SW,220,0.0,0.0,80,0.00,SCT,,0.00,0.0,WeatherDisplay:10.37,2013-02-05 06:51:00,
2013-02-05 01:56:00,31.2,25.7,29.84,SW,221,0.7,3.5,80,0.00,SCT,,0.00,0.0,WeatherDisplay:10.37,2013-02-05 06:56:00,
2013-02-05 02:01:00,31.2,26.0,29.83,SW,221,0.0,0.0,81,0.00,SCT,,0.00,0.0,WeatherDisplay:10.37,2013-02-05 07:01:00,
2013-02-05 02:06:00,31.0,26.1,29.83,SW,221,0.0,0.0,82,0.00,SCT,,0.00,0.0,WeatherDisplay:10.37,2013-02-05 07:06:00,
2013-02-05 02:11:00,30.7,25.9,29.83,SW,221,0.0,0.0,82,0.00,OVC,,0.00,0.0,WeatherDisplay:10.37,2013-02-05 07:11:00,
2013-02-05 02:16:00,30.6,25.8,29.83,SW,221,0.0,0.0,82,0.00,OVC,,0.00,0.0,WeatherDisplay:10.37,2013-02-05 07:16:00,
2013-02-05 02:21:00,30.6,25.8,29.83,SW,221,0.0,0.0,82,0.00,OVC,,0.00,0.0,WeatherDisplay:10.37,2013-02-05 07:21:00,
2013-02-05 02:26:00,30.3,25.8,29.83,SW,221,0.0,0.0,83,0.00,OVC,,0.00,0.0,WeatherDisplay:10.37,2013-02-05 07:26:00,
2013-02-05 02:31:00,30.1,25.6,29.82,SW,221,0.0,0.0,83,0.00,OVC,,0.00,0.0,WeatherDisplay:10.37,2013-02-05 07:31:00,
2013-02-05 02:36:00,30.1,25.6,29.82,SW,221,0.0,0.0,83,0.00,OVC,,0.00,0.0,WeatherDisplay:10.37,2013-02-05 07:36:00,
2013-02-05 02:41:00,30.3,26.0,29.82,SW,221,0.0,0.0,84,0.00,OVC,,0.00,0.0,WeatherDisplay:10.37,2013-02-05 07:41:00,
2013-02-05 02:46:00,30.3,26.0,29.82,SW,221,0.0,0.0,84,0.00,OVC,,0.00,0.0,WeatherDisplay:10.37,2013-02-05 07:46:00,
2013-02-05 02:51:00,30.3,26.3,29.82,SW,221,0.0,0.0,85,0.00,OVC,,0.00,0.0,WeatherDisplay:10.37,2013-02-05 07:51:00,
2013-02-05 02:56:00,30.4,26.4,29.82,SW,221,0.0,0.0,85,0.00,OVC,,0.00,0.0,WeatherDisplay:10.37,2013-02-05 07:56:00,
2013-02-05 03:01:00,30.4,26.4,29.82,SW,221,0.0,0.0,85,0.00,BKN,,0.00,0.0,WeatherDisplay:10.37,2013-02-05 08:01:00,
2013-02-05 03:06:00,30.6,26.9,29.82,SW,221,0.1,1.1,86,0.00,BKN,,0.00,0.0,WeatherDisplay:10.37,2013-02-05 08:06:00,
2013-02-05 03:11:00,30.7,27.0,29.82,SW,222,0.0,0.0,86,0.00,BKN,,0.00,0.0,WeatherDisplay:10.37,2013-02-05 08:11:00,
2013-02-05 03:16:00,30.7,27.0,29.82,SW,222,0.0,0.0,86,0.00,BKN,,0.00,0.0,WeatherDisplay:10.37,2013-02-05 08:16:00,
2013-02-05 03:21:00,30.9,27.2,29.82,SW,222,0.0,0.0,86,0.00,BKN,,0.00,0.0,WeatherDisplay:10.37,2013-02-05 08:21:00,
2013-02-05 03:26:00,30.9,27.2,29.82,SW,222,0.0,0.0,86,0.00,BKN,,0.00,0.0,WeatherDisplay:10.37,2013-02-05 08:26:00,
2013-02-05 03:31:00,31.0,27.3,29.82,SW,222,0.0,0.0,86,0.00,BKN,,0.00,0.0,WeatherDisplay:10.37,2013-02-05 08:31:00,
2013-02-05 03:36:00,31.0,27.3,29.82,SW,222,0.0,0.0,86,0.00,BKN,,0.00,0.0,WeatherDisplay:10.37,2013-02-05 08:36:00,
2013-02-05 03:41:00,31.2,27.5,29.82,SW,222,0.0,0.0,86,0.00,BKN,,0.00,0.0,WeatherDisplay:10.37,2013-02-05 08:41:00,
2013-02-05 03:46:00,31.2,27.5,29.82,SW,222,0.4,1.5,86,0.00,BKN,,0.00,0.0,WeatherDisplay:10.37,2013-02-05 08:46:00,
2013-02-05 03:51:00,31.2,27.5,29.82,SW,223,0.0,0.0,86,0.00,BKN,,0.00,0.0,WeatherDisplay:10.37,2013-02-05 08:51:00,
2013-02-05 03:56:00,31.2,27.5,29.82,SW,223,0.0,1.5,86,0.00,BKN,,0.00,0.0,WeatherDisplay:10.37,2013-02-05 08:56:00,
2013-02-05 04:01:00,31.3,27.6,29.82,SW,223,0.0,0.0,86,0.00,BKN,,0.00,0.0,WeatherDisplay:10.37,2013-02-05 09:01:00,
2013-02-05 04:06:00,31.3,27.6,29.82,SW,225,0.4,1.5,86,0.00,BKN,,0.00,0.0,WeatherDisplay:10.37,2013-02-05 09:06:00,
2013-02-05 04:11:00,31.3,27.6,29.82,SW,228,0.0,0.0,86,0.00,BKN,,0.00,0.0,WeatherDisplay:10.37,2013-02-05 09:11:00,
2013-02-05 04:16:00,31.3,27.6,29.82,SW,228,0.0,0.0,86,0.00,BKN,,0.00,0.0,WeatherDisplay:10.37,2013-02-05 09:16:00,
2013-02-05 04:21:00,31.3,27.6,29.82,SW,228,0.0,0.0,86,0.00,BKN,,0.00,0.0,WeatherDisplay:10.37,2013-02-05 09:21:00,
2013-02-05 04:26:00,31.3,27.6,29.82,SW,228,0.0,1.5,86,0.00,BKN,,0.00,0.0,WeatherDisplay:10.37,2013-02-05 09:26:00,
2013-02-05 04:31:00,31.3,27.6,29.82,SW,231,0.8,3.5,86,0.00,BKN,,0.00,0.0,WeatherDisplay:10.37,2013-02-05 09:31:00,
2013-02-05 04:36:00,31.3,27.6,29.82,NNW,335,1.5,3.5,86,0.00,BKN,,0.00,0.0,WeatherDisplay:10.37,2013-02-05 09:36:00,
2013-02-05 04:41:00,31.3,27.6,29.82,NNW,336,0.0,1.5,86,0.00,BKN,,0.00,0.0,WeatherDisplay:10.37,2013-02-05 09:41:00,
2013-02-05 04:46:00,31.3,27.6,29.82,NNW,334,0.8,3.5,86,0.00,BKN,,0.00,0.0,WeatherDisplay:10.37,2013-02-05 09:46:00,
2013-02-05 04:51:00,31.3,27.6,29.82,NNE,16,0.0,0.0,86,0.00,BKN,,0.00,0.0,WeatherDisplay:10.37,2013-02-05 09:51:00,
2013-02-05 04:56:00,31.3,27.6,29.83,NNE,17,3.3,6.0,86,0.00,BKN,,0.00,0.0,WeatherDisplay:10.37,2013-02-05 09:56:00,
2013-02-05 05:01:00,31.3,27.6,29.83,NNE,17,0.6,3.0,86,0.00,BKN,,0.00,0.0,WeatherDisplay:10.37,2013-02-05 10:01:00,
2013-02-05 05:06:00,31.3,27.6,29.83,NNE,17,0.0,1.1,86,0.00,BKN,,0.00,0.0,WeatherDisplay:10.37,2013-02-05 10:06:00,
2013-02-05 05:11:00,31.3,27.6,29.83,NNE,17,0.0,0.0,86,0.00,BKN,,0.00,0.0,WeatherDisplay:10.37,2013-02-05 10:11:00,
2013-02-05 05:16:00,31.3,27.6,29.84,NNE,17,0.0,0.0,86,0.00,BKN,,0.00,0.0,WeatherDisplay:10.37,2013-02-05 10:16:00,
2013-02-05 05:21:00,31.2,27.5,29.84,NNE,17,0.0,0.0,86,0.00,OVC,,0.00,0.0,WeatherDisplay:10.37,2013-02-05 10:21:00,
2013-02-05 05:26:00,31.2,27.5,29.83,NNE,17,0.0,1.5,86,0.00,OVC,,0.00,0.0,WeatherDisplay:10.37,2013-02-05 10:26:00,
2013-02-05 05:31:00,31.2,27.5,29.84,NNE,17,0.0,0.0,86,0.00,OVC,,0.00,0.0,WeatherDisplay:10.37,2013-02-05 10:31:00,
2013-02-05 05:36:00,31.2,27.5,29.84,NNE,17,0.0,1.1,86,0.00,OVC,,0.00,0.0,WeatherDisplay:10.37,2013-02-05 10:36:00,
2013-02-05 05:41:00,31.2,27.5,29.84,NNE,17,1.2,1.5,86,0.00,OVC,,0.00,0.0,WeatherDisplay:10.37,2013-02-05 10:41:00,
2013-02-05 05:46:00,31.2,27.5,29.84,NNE,13,0.0,4.6,86,0.00,OVC,,0.00,0.0,WeatherDisplay:10.37,2013-02-05 10:46:00,
2013-02-05 05:51:00,31.2,27.8,29.84,NNE,14,0.3,1.5,87,0.00,OVC,,0.00,0.0,WeatherDisplay:10.37,2013-02-05 10:51:00,
2013-02-05 05:56:00,31.2,27.8,29.84,NNE,14,0.0,1.1,87,0.00,OVC,,0.00,0.0,WeatherDisplay:10.37,2013-02-05 10:56:00,
2013-02-05 06:01:00,31.2,27.8,29.84,NNE,14,4.3,6.0,87,0.00,OVC,,0.00,0.0,WeatherDisplay:10.37,2013-02-05 11:01:00,
2013-02-05 06:06:00,31.2,27.8,29.84,NNE,16,2.1,4.5,87,0.00,OVC,,0.00,0.0,WeatherDisplay:10.37,2013-02-05 11:06:00,
2013-02-05 06:11:00,31.2,27.8,29.85,NNE,16,0.1,1.5,87,0.00,OVC,,0.00,0.0,WeatherDisplay:10.37,2013-02-05 11:11:00,
2013-02-05 06:16:00,31.2,27.8,29.85,NNE,16,0.1,1.5,87,0.00,OVC,,0.00,0.0,WeatherDisplay:10.37,2013-02-05 11:16:00,
2013-02-05 06:21:00,31.2,28.1,29.84,North,5,2.1,5.8,88,0.00,OVC,,0.00,0.0,WeatherDisplay:10.37,2013-02-05 11:21:00,
2013-02-05 06:26:00,31.2,28.1,29.84,North,355,0.9,3.5,88,0.00,OVC,,0.00,0.0,WeatherDisplay:10.37,2013-02-05 11:26:00,
2013-02-05 06:31:00,31.0,27.9,29.85,North,355,4.0,4.6,88,0.00,OVC,,0.00,0.0,WeatherDisplay:10.37,2013-02-05 11:31:00,
2013-02-05 06:36:00,31.0,28.1,29.85,North,355,3.1,4.6,89,0.00,OVC,,0.00,0.0,WeatherDisplay:10.37,2013-02-05 11:36:00,
2013-02-05 06:41:00,31.0,28.1,29.85,North,360,0.1,1.1,89,0.00,OVC,,0.00,0.0,WeatherDisplay:10.37,2013-02-05 11:41:00,
2013-02-05 06:46:00,31.2,28.3,29.85,North,355,0.0,1.5,89,0.00,OVC,,0.00,0.0,WeatherDisplay:10.37,2013-02-05 11:46:00,
2013-02-05 06:51:00,31.2,28.3,29.85,North,360,2.2,4.6,89,0.00,OVC,,0.00,0.0,WeatherDisplay:10.37,2013-02-05 11:51:00,
2013-02-05 06:56:00,31.2,28.6,29.85,North,5,2.3,4.6,90,0.00,OVC,,0.00,0.0,WeatherDisplay:10.37,2013-02-05 11:56:00,
2013-02-05 07:01:00,31.0,28.4,29.86,NNW,346,0.3,4.6,90,0.00,OVC,,0.00,0.0,WeatherDisplay:10.37,2013-02-05 12:01:00,
2013-02-05 07:06:00,31.0,28.4,29.86,NNW,346,0.2,0.0,90,0.00,OVC,,0.00,0.0,WeatherDisplay:10.37,2013-02-05 12:06:00,
2013-02-05 07:11:00,31.0,28.4,29.87,NNW,346,0.0,4.6,90,0.00,BKN,,0.00,0.0,WeatherDisplay:10.37,2013-02-05 12:11:00,
2013-02-05 07:16:00,31.0,28.7,29.87,NNW,347,0.6,3.0,91,0.00,BKN,,0.00,0.0,WeatherDisplay:10.37,2013-02-05 12:16:00,
2013-02-05 07:21:00,31.0,28.7,29.87,NNW,347,1.4,3.5,91,0.00,BKN,,0.00,0.0,WeatherDisplay:10.37,2013-02-05 12:21:00,
2013-02-05 07:26:00,31.0,28.7,29.87,NNW,347,2.0,3.5,91,0.00,BKN,,0.00,0.0,WeatherDisplay:10.37,2013-02-05 12:26:00,
2013-02-05 07:31:00,30.9,28.6,29.87,NNW,347,0.8,3.5,91,0.00,BKN,,0.00,0.0,WeatherDisplay:10.37,2013-02-05 12:31:00,
2013-02-05 07:36:00,30.9,28.6,29.87,West,278,0.0,0.0,91,0.00,BKN,,0.00,0.0,WeatherDisplay:10.37,2013-02-05 12:36:00,
2013-02-05 07:41:00,30.9,28.6,29.87,West,279,0.0,1.1,91,0.00,BKN,,0.00,0.0,WeatherDisplay:10.37,2013-02-05 12:41:00,
2013-02-05 07:46:00,30.9,28.6,29.87,West,279,0.0,1.1,91,0.00,BKN,,0.00,5.0,WeatherDisplay:10.37,2013-02-05 12:46:00,
2013-02-05 07:51:00,30.9,28.9,29.87,West,279,0.0,0.0,92,0.00,BKN,,0.00,5.0,WeatherDisplay:10.37,2013-02-05 12:51:00,
2013-02-05 07:56:00,30.9,28.9,29.87,West,279,0.0,1.1,92,0.00,BKN,,0.00,5.0,WeatherDisplay:10.37,2013-02-05 12:56:00,
2013-02-05 08:02:00,30.9,28.9,29.87,West,279,0.0,0.0,92,0.00,BKN,,0.00,7.0,WeatherDisplay:10.37,2013-02-05 13:02:00,
2013-02-05 08:07:00,30.9,28.9,29.87,West,279,0.0,0.0,92,0.00,BKN,,0.00,11.0,WeatherDisplay:10.37,2013-02-05 13:07:00,
2013-02-05 08:12:00,30.9,28.9,29.88,ENE,63,0.0,0.0,92,0.00,OVC,,0.00,9.0,WeatherDisplay:10.37,2013-02-05 13:12:00,
2013-02-05 08:17:00,30.9,28.9,29.88,ENE,63,0.0,0.0,92,0.00,OVC,,0.00,9.0,WeatherDisplay:10.37,2013-02-05 13:17:00,
2013-02-05 08:22:00,31.0,28.9,29.88,ENE,63,0.1,1.5,92,0.00,OVC,,0.00,14.0,WeatherDisplay:10.37,2013-02-05 13:22:00,
2013-02-05 08:27:00,31.0,28.9,29.89,ENE,63,0.0,0.0,92,0.00,OVC,,0.00,14.0,WeatherDisplay:10.37,2013-02-05 13:27:00,
2013-02-05 08:32:00,31.0,28.9,29.89,ENE,63,0.0,0.0,92,0.00,OVC,,0.00,28.0,WeatherDisplay:10.37,2013-02-05 13:32:00,
2013-02-05 08:37:00,31.0,28.9,29.89,ENE,63,0.0,0.0,92,0.00,OVC,,0.00,35.0,WeatherDisplay:10.37,2013-02-05 13:37:00,
2013-02-05 08:42:00,31.0,28.9,29.89,ENE,63,0.0,0.0,92,0.00,OVC,,0.00,37.0,WeatherDisplay:10.37,2013-02-05 13:42:00,
2013-02-05 08:47:00,31.2,29.1,29.90,ENE,63,0.0,0.0,92,0.00,OVC,,0.00,35.0,WeatherDisplay:10.37,2013-02-05 13:47:00,
2013-02-05 08:52:00,31.2,29.1,29.89,ENE,63,0.3,1.1,92,0.00,OVC,,0.00,47.0,WeatherDisplay:10.37,2013-02-05 13:52:00,
2013-02-05 08:57:00,31.2,29.1,29.90,ENE,62,0.5,1.5,92,0.00,OVC,,0.00,39.0,WeatherDisplay:10.37,2013-02-05 13:57:00,
2013-02-05 09:02:00,31.3,29.2,29.89,ENE,62,0.0,0.0,92,0.00,OVC,,0.00,44.0,WeatherDisplay:10.37,2013-02-05 14:02:00,
2013-02-05 09:07:00,31.3,29.2,29.89,ENE,62,0.0,0.0,92,0.00,OVC,,0.00,77.0,WeatherDisplay:10.37,2013-02-05 14:07:00,
2013-02-05 09:12:00,31.5,29.4,29.88,ENE,62,0.0,0.0,92,0.00,OVC,,0.00,70.0,WeatherDisplay:10.37,2013-02-05 14:12:00,
2013-02-05 09:17:00,31.5,29.4,29.88,ENE,62,0.0,0.0,92,0.00,OVC,,0.00,58.0,WeatherDisplay:10.37,2013-02-05 14:17:00,
2013-02-05 09:22:00,31.6,29.3,29.89,ENE,62,0.0,0.0,91,0.00,OVC,,0.00,46.0,WeatherDisplay:10.37,2013-02-05 14:22:00,
2013-02-05 09:27:00,31.6,29.3,29.89,ENE,62,0.0,0.0,91,0.00,OVC,,0.00,49.0,WeatherDisplay:10.37,2013-02-05 14:27:00,
2013-02-05 09:32:00,31.6,29.3,29.88,ENE,62,0.0,0.0,91,0.00,OVC,,0.00,58.0,WeatherDisplay:10.37,2013-02-05 14:32:00,
2013-02-05 09:37:00,31.8,29.5,29.88,ENE,62,0.0,0.0,91,0.00,OVC,,0.00,49.0,WeatherDisplay:10.37,2013-02-05 14:37:00,
2013-02-05 09:42:00,31.8,29.5,29.88,ENE,62,0.0,0.0,91,0.00,OVC,,0.00,62.0,WeatherDisplay:10.37,2013-02-05 14:42:00,
2013-02-05 09:47:00,31.8,29.5,29.89,ENE,62,0.0,0.0,91,0.00,OVC,,0.00,47.0,WeatherDisplay:10.37,2013-02-05 14:47:00,
2013-02-05 09:52:00,31.9,29.6,29.89,ENE,62,0.0,0.0,91,0.00,OVC,,0.00,47.0,WeatherDisplay:10.37,2013-02-05 14:52:00,
2013-02-05 09:57:00,31.9,29.6,29.90,ENE,62,0.0,0.0,91,0.00,OVC,,0.00,42.0,WeatherDisplay:10.37,2013-02-05 14:57:00,
2013-02-05 10:02:00,32.1,29.5,29.90,ENE,62,0.0,0.0,90,0.00,OVC,,0.00,39.0,WeatherDisplay:10.37,2013-02-05 15:02:00,
2013-02-05 10:07:00,32.2,29.6,29.90,ENE,62,0.0,0.0,90,0.00,OVC,,0.00,60.0,WeatherDisplay:10.37,2013-02-05 15:07:00,
2013-02-05 10:12:00,32.4,29.8,29.90,ENE,62,0.3,1.5,90,0.00,OVC,,0.00,90.0,WeatherDisplay:10.37,2013-02-05 15:12:00,
2013-02-05 10:17:00,32.5,29.9,29.89,NNE,28,0.6,1.5,90,0.00,OVC,,0.00,227.0,WeatherDisplay:10.37,2013-02-05 15:17:00,
2013-02-05 10:22:00,32.8,30.2,29.90,NNE,28,0.5,3.0,90,0.00,OVC,,0.00,163.0,WeatherDisplay:10.37,2013-02-05 15:22:00,
2013-02-05 10:27:00,32.8,29.9,29.90,NNE,28,0.0,0.0,89,0.00,OVC,,0.00,149.0,WeatherDisplay:10.37,2013-02-05 15:27:00,
2013-02-05 10:32:00,32.8,29.9,29.90,NNE,28,0.0,0.0,89,0.00,OVC,,0.00,149.0,WeatherDisplay:10.37,2013-02-05 15:32:00,
2013-02-05 10:37:00,32.9,30.0,29.90,NNE,27,1.7,3.5,89,0.00,OVC,,0.00,141.0,WeatherDisplay:10.37,2013-02-05 15:37:00,
2013-02-05 10:42:00,33.1,30.2,29.90,NNE,27,1.0,3.5,89,0.00,OVC,,0.00,151.0,WeatherDisplay:10.37,2013-02-05 15:42:00,
2013-02-05 10:47:00,33.2,30.3,29.90,NNE,27,0.0,0.0,89,0.00,OVC,,0.00,192.0,WeatherDisplay:10.37,2013-02-05 15:47:00,
2013-02-05 10:52:00,33.5,30.6,29.89,NNE,27,0.0,0.0,89,0.00,OVC,,0.00,207.0,WeatherDisplay:10.37,2013-02-05 15:52:00,
2013-02-05 10:57:00,33.7,30.5,29.89,NNE,27,0.0,0.0,88,0.00,OVC,,0.00,160.0,WeatherDisplay:10.37,2013-02-05 15:57:00,
2013-02-05 11:02:00,33.8,30.6,29.89,NNE,27,0.0,0.0,88,0.00,OVC,,0.00,178.0,WeatherDisplay:10.37,2013-02-05 16:02:00,
2013-02-05 11:07:00,34.0,30.8,29.89,SSE,157,0.6,3.5,88,0.00,OVC,,0.00,211.0,WeatherDisplay:10.37,2013-02-05 16:07:00,
2013-02-05 11:12:00,34.1,30.6,29.89,SSE,157,0.1,1.1,87,0.00,OVC,,0.00,216.0,WeatherDisplay:10.37,2013-02-05 16:12:00,
2013-02-05 11:17:00,34.4,30.9,29.89,SSE,157,0.0,0.0,87,0.00,OVC,,0.00,248.0,WeatherDisplay:10.37,2013-02-05 16:17:00,
2013-02-05 11:22:00,34.7,30.9,29.89,SSE,157,0.0,0.0,86,0.00,OVC,,0.00,258.0,WeatherDisplay:10.37,2013-02-05 16:22:00,
2013-02-05 11:27:00,35.0,31.2,29.89,SSE,157,0.1,1.5,86,0.00,OVC,,0.00,287.0,WeatherDisplay:10.37,2013-02-05 16:27:00,
2013-02-05 11:32:00,35.8,32.0,29.88,SSE,157,0.0,0.0,86,0.00,OVC,,0.00,302.0,WeatherDisplay:10.37,2013-02-05 16:32:00,
2013-02-05 11:37:00,36.0,31.9,29.88,SSE,157,0.5,1.5,85,0.00,OVC,,0.00,325.0,WeatherDisplay:10.37,2013-02-05 16:37:00,
2013-02-05 11:42:00,36.3,31.9,29.88,East,98,0.0,0.0,84,0.00,OVC,,0.00,304.0,WeatherDisplay:10.37,2013-02-05 16:42:00,
2013-02-05 11:47:00,36.5,31.8,29.88,East,92,1.5,3.5,83,0.00,OVC,,0.00,251.0,WeatherDisplay:10.37,2013-02-05 16:47:00,
2013-02-05 11:52:00,36.3,31.3,29.88,East,91,0.0,1.1,82,0.00,OVC,,0.00,156.0,WeatherDisplay:10.37,2013-02-05 16:52:00,
2013-02-05 11:57:00,36.0,30.7,29.88,East,91,0.0,0.0,81,0.00,OVC,,0.00,100.0,WeatherDisplay:10.37,2013-02-05 16:57:00,
2013-02-05 12:02:00,36.0,30.7,29.87,South,180,0.0,0.0,81,0.00,BKN,,0.00,105.0,WeatherDisplay:10.37,2013-02-05 17:02:00,
2013-02-05 12:07:00,36.0,30.7,29.87,WSW,242,0.0,0.0,81,0.00,BKN,,0.00,114.0,WeatherDisplay:10.37,2013-02-05 17:07:00,
2013-02-05 12:12:00,36.0,30.7,29.86,WSW,243,0.0,0.0,81,0.00,BKN,,0.00,125.0,WeatherDisplay:10.37,2013-02-05 17:12:00,
2013-02-05 12:17:00,36.2,30.9,29.85,WSW,243,0.0,1.1,81,0.00,BKN,,0.00,163.0,WeatherDisplay:10.37,2013-02-05 17:17:00,
2013-02-05 12:22:00,36.5,31.2,29.85,WSW,242,1.6,3.5,81,0.00,BKN,,0.00,185.0,WeatherDisplay:10.37,2013-02-05 17:22:00,
2013-02-05 12:27:00,36.5,30.9,29.85,WSW,242,0.3,3.5,80,0.00,BKN,,0.00,230.0,WeatherDisplay:10.37,2013-02-05 17:27:00,
2013-02-05 12:32:00,36.9,31.0,29.84,SSE,164,0.1,3.5,79,0.00,BKN,,0.00,229.0,WeatherDisplay:10.37,2013-02-05 17:32:00,
2013-02-05 12:37:00,37.2,30.7,29.85,SSE,164,0.0,0.0,77,0.00,BKN,,0.00,134.0,WeatherDisplay:10.37,2013-02-05 17:37:00,
2013-02-05 12:42:00,37.3,30.1,29.84,SSE,164,0.0,0.0,75,0.00,BKN,,0.00,193.0,WeatherDisplay:10.37,2013-02-05 17:42:00,
2013-02-05 12:47:00,37.5,30.3,29.84,SSE,164,0.0,0.0,75,0.00,BKN,,0.00,178.0,WeatherDisplay:10.37,2013-02-05 17:47:00,
2013-02-05 12:52:00,37.8,30.3,29.84,SSE,164,0.6,1.5,74,0.00,BKN,,0.00,207.0,WeatherDisplay:10.37,2013-02-05 17:52:00,
2013-02-05 12:57:00,37.9,30.0,29.83,SSE,149,0.8,3.5,73,0.00,BKN,,0.00,206.0,WeatherDisplay:10.37,2013-02-05 17:57:00,
2013-02-05 13:02:00,38.2,30.3,29.83,SSE,149,0.5,1.1,73,0.00,BKN,,0.00,100.0,WeatherDisplay:10.37,2013-02-05 18:02:00,
2013-02-05 13:07:00,38.0,29.4,29.83,SSE,148,1.3,4.5,71,0.00,BKN,,0.00,77.0,WeatherDisplay:10.37,2013-02-05 18:07:00,
2013-02-05 13:12:00,37.8,29.2,29.83,SE,132,0.3,5.8,71,0.00,OVC,,0.00,100.0,WeatherDisplay:10.37,2013-02-05 18:12:00,
2013-02-05 13:18:00,37.8,29.2,29.83,SE,132,0.1,1.1,71,0.00,OVC,,0.00,95.0,WeatherDisplay:10.37,2013-02-05 18:18:00,
2013-02-05 13:23:00,37.6,29.0,29.83,SE,127,2.5,4.5,71,0.00,OVC,,0.00,54.0,WeatherDisplay:10.37,2013-02-05 18:23:00,
2013-02-05 13:28:00,37.5,29.3,29.83,SE,127,0.0,1.1,72,0.00,OVC,,0.00,76.0,WeatherDisplay:10.37,2013-02-05 18:28:00,
2013-02-05 13:33:00,37.5,29.6,29.82,SE,127,0.0,0.0,73,0.00,OVC,,0.00,127.0,WeatherDisplay:10.37,2013-02-05 18:33:00,
2013-02-05 13:38:00,37.3,29.4,29.83,SE,127,0.5,1.5,73,0.00,OVC,,0.00,123.0,WeatherDisplay:10.37,2013-02-05 18:38:00,
2013-02-05 13:43:00,37.0,29.5,29.82,SE,127,0.5,4.6,74,0.00,OVC,,0.00,74.0,WeatherDisplay:10.37,2013-02-05 18:43:00,
2013-02-05 13:48:00,36.9,29.4,29.83,SE,127,0.1,3.5,74,0.00,OVC,,0.00,72.0,WeatherDisplay:10.37,2013-02-05 18:48:00,
2013-02-05 13:53:00,36.6,29.1,29.82,SE,126,3.3,5.8,74,0.00,OVC,,0.00,100.0,WeatherDisplay:10.37,2013-02-05 18:53:00,
2013-02-05 13:58:00,36.8,29.6,29.82,ESE,108,5.4,9.0,75,0.00,OVC,,0.00,302.0,WeatherDisplay:10.37,2013-02-05 18:58:00,
2013-02-05 14:03:00,37.2,30.0,29.82,ESE,108,0.2,3.5,75,0.00,OVC,,0.00,153.0,WeatherDisplay:10.37,2013-02-05 19:03:00,
2013-02-05 14:08:00,37.2,30.0,29.82,ESE,111,4.5,6.0,75,0.00,OVC,,0.00,144.0,WeatherDisplay:10.37,2013-02-05 19:08:00,
2013-02-05 14:13:00,37.0,29.8,29.82,ESE,109,1.5,4.6,75,0.00,OVC,,0.00,134.0,WeatherDisplay:10.37,2013-02-05 19:13:00,
2013-02-05 14:18:00,37.0,29.8,29.82,ESE,109,0.5,1.5,75,0.00,OVC,,0.00,104.0,WeatherDisplay:10.37,2013-02-05 19:18:00,
2013-02-05 14:23:00,37.0,30.1,29.82,ESE,109,1.8,3.5,76,0.00,OVC,,0.00,91.0,WeatherDisplay:10.37,2013-02-05 19:23:00,
2013-02-05 14:28:00,37.0,30.1,29.82,ESE,109,0.8,3.5,76,0.00,OVC,,0.00,77.0,WeatherDisplay:10.37,2013-02-05 19:28:00,
2013-02-05 14:33:00,36.9,29.7,29.83,ESE,109,0.2,3.0,75,0.00,OVC,,0.00,163.0,WeatherDisplay:10.37,2013-02-05 19:33:00,
2013-02-05 14:38:00,37.0,29.8,29.82,ESE,111,3.3,4.6,75,0.00,OVC,,0.00,220.0,WeatherDisplay:10.37,2013-02-05 19:38:00,
2013-02-05 14:43:00,37.3,30.1,29.82,ESE,109,1.6,3.5,75,0.00,OVC,,0.00,167.0,WeatherDisplay:10.37,2013-02-05 19:43:00,
2013-02-05 14:48:00,37.5,30.3,29.82,ESE,107,2.3,6.0,75,0.00,OVC,,0.00,148.0,WeatherDisplay:10.37,2013-02-05 19:48:00,
2013-02-05 14:53:00,37.5,30.3,29.82,ESE,105,2.3,7.5,75,0.00,OVC,,0.00,134.0,WeatherDisplay:10.37,2013-02-05 19:53:00,
2013-02-05 14:58:00,37.3,30.1,29.82,ESE,104,1.0,4.6,75,0.00,OVC,,0.00,116.0,WeatherDisplay:10.37,2013-02-05 19:58:00,
2013-02-05 15:03:00,37.3,29.8,29.82,ESE,104,0.8,1.5,74,0.00,OVC,,0.00,54.0,WeatherDisplay:10.37,2013-02-05 20:03:00,
2013-02-05 15:08:00,37.2,29.7,29.82,ESE,104,1.8,3.5,74,0.00,OVC,,0.00,63.0,WeatherDisplay:10.37,2013-02-05 20:08:00,
2013-02-05 15:13:00,37.0,29.5,29.82,ESE,104,0.0,0.0,74,0.00,OVC,,0.00,62.0,WeatherDisplay:10.37,2013-02-05 20:13:00,
2013-02-05 15:18:00,36.9,29.4,29.82,ESE,104,0.4,3.5,74,0.00,OVC,,0.00,158.0,WeatherDisplay:10.37,2013-02-05 20:18:00,
2013-02-05 15:23:00,37.2,30.3,29.82,ESE,104,2.1,4.5,76,0.00,OVC,,0.00,352.0,WeatherDisplay:10.37,2013-02-05 20:23:00,
2013-02-05 15:28:00,37.3,30.7,29.82,ESE,104,2.3,4.6,77,0.00,OVC,,0.00,188.0,WeatherDisplay:10.37,2013-02-05 20:28:00,
2013-02-05 15:33:00,37.2,30.7,29.82,ESE,104,2.9,4.5,77,0.00,OVC,,0.00,125.0,WeatherDisplay:10.37,2013-02-05 20:33:00,
2013-02-05 15:38:00,36.8,30.6,29.82,ESE,104,0.0,1.5,78,0.00,OVC,,0.00,83.0,WeatherDisplay:10.37,2013-02-05 20:38:00,
2013-02-05 15:43:00,36.6,30.7,29.82,ESE,104,0.0,1.1,79,0.00,OVC,,0.00,67.0,WeatherDisplay:10.37,2013-02-05 20:43:00,
2013-02-05 15:48:00,36.5,30.6,29.83,ESE,104,2.4,4.6,79,0.00,OVC,,0.00,49.0,WeatherDisplay:10.37,2013-02-05 20:48:00,
2013-02-05 15:53:00,36.5,30.9,29.83,ESE,104,0.0,0.0,80,0.00,OVC,,0.00,28.0,WeatherDisplay:10.37,2013-02-05 20:53:00,
2013-02-05 15:58:00,36.5,30.9,29.83,ESE,104,0.0,0.0,80,0.00,OVC,,0.00,51.0,WeatherDisplay:10.37,2013-02-05 20:58:00,
2013-02-05 16:03:00,36.3,30.4,29.83,ESE,104,5.2,6.0,79,0.00,OVC,,0.00,35.0,WeatherDisplay:10.37,2013-02-05 21:03:00,
2013-02-05 16:08:00,36.3,30.1,29.83,ESE,105,0.2,4.6,78,0.00,OVC,,0.00,39.0,WeatherDisplay:10.37,2013-02-05 21:08:00,
2013-02-05 16:13:00,36.3,30.1,29.83,ESE,105,0.9,3.0,78,0.00,OVC,,0.00,40.0,WeatherDisplay:10.37,2013-02-05 21:13:00,
2013-02-05 16:18:00,36.3,30.1,29.83,ESE,105,0.0,1.1,78,0.00,OVC,,0.00,28.0,WeatherDisplay:10.37,2013-02-05 21:18:00,
2013-02-05 16:23:00,36.3,30.1,29.83,ESE,105,0.2,3.5,78,0.00,OVC,,0.00,39.0,WeatherDisplay:10.37,2013-02-05 21:23:00,
2013-02-05 16:28:00,36.2,30.0,29.83,ESE,105,0.0,3.5,78,0.00,OVC,,0.00,26.0,WeatherDisplay:10.37,2013-02-05 21:28:00,
2013-02-05 16:33:00,36.2,30.3,29.83,ESE,105,0.4,3.0,79,0.00,OVC,,0.00,63.0,WeatherDisplay:10.37,2013-02-05 21:33:00,
2013-02-05 16:38:00,36.2,30.3,29.83,ESE,105,1.7,7.5,79,0.00,OVC,,0.00,35.0,WeatherDisplay:10.37,2013-02-05 21:38:00,
2013-02-05 16:43:00,36.0,30.1,29.83,ESE,103,1.9,4.6,79,0.00,OVC,,0.00,60.0,WeatherDisplay:10.37,2013-02-05 21:43:00,
2013-02-05 16:48:00,36.0,30.1,29.83,ESE,103,0.1,1.1,79,0.00,OVC,,0.00,40.0,WeatherDisplay:10.37,2013-02-05 21:48:00,
2013-02-05 16:53:00,36.0,30.4,29.83,ESE,103,0.0,0.0,80,0.00,OVC,,0.00,33.0,WeatherDisplay:10.37,2013-02-05 21:53:00,
2013-02-05 16:58:00,36.2,30.6,29.83,NW,304,0.0,0.0,80,0.00,OVC,,0.00,63.0,WeatherDisplay:10.37,2013-02-05 21:58:00,
2013-02-05 17:03:00,36.3,30.7,29.83,WNW,293,0.0,0.0,80,0.00,BKN,,0.00,47.0,WeatherDisplay:10.37,2013-02-05 22:03:00,
2013-02-05 17:08:00,36.3,30.7,29.83,WNW,291,0.0,0.0,80,0.00,BKN,,0.00,21.0,WeatherDisplay:10.37,2013-02-05 22:08:00,
2013-02-05 17:13:00,36.0,30.1,29.83,WNW,292,0.0,0.0,79,0.00,BKN,,0.00,16.0,WeatherDisplay:10.37,2013-02-05 22:13:00,
2013-02-05 17:18:00,35.8,29.9,29.83,WNW,292,0.0,0.0,79,0.00,BKN,,0.00,14.0,WeatherDisplay:10.37,2013-02-05 22:18:00,
2013-02-05 17:23:00,35.3,29.4,29.83,WNW,292,0.0,0.0,79,0.00,BKN,,0.00,14.0,WeatherDisplay:10.37,2013-02-05 22:23:00,
2013-02-05 17:29:00,35.0,29.5,29.83,WNW,292,0.0,0.0,80,0.00,BKN,,0.00,9.0,WeatherDisplay:10.37,2013-02-05 22:29:00,
2013-02-05 17:34:00,34.7,29.2,29.83,WNW,292,0.0,0.0,80,0.00,BKN,,0.00,5.0,WeatherDisplay:10.37,2013-02-05 22:34:00,
2013-02-05 17:39:00,34.3,28.8,29.83,WNW,292,0.0,0.0,80,0.00,BKN,,0.00,0.0,WeatherDisplay:10.37,2013-02-05 22:39:00,
2013-02-05 17:44:00,34.0,28.5,29.83,WNW,292,0.0,0.0,80,0.00,BKN,,0.00,0.0,WeatherDisplay:10.37,2013-02-05 22:44:00,
2013-02-05 17:49:00,33.7,28.5,29.83,WNW,292,0.0,0.0,81,0.00,BKN,,0.00,0.0,WeatherDisplay:10.37,2013-02-05 22:49:00,
2013-02-05 17:54:00,33.4,28.5,29.84,WNW,292,0.0,0.0,82,0.00,BKN,,0.00,0.0,WeatherDisplay:10.37,2013-02-05 22:54:00,
2013-02-05 17:59:00,33.2,28.3,29.84,WNW,292,0.0,0.0,82,0.00,BKN,,0.00,0.0,WeatherDisplay:10.37,2013-02-05 22:59:00,
2013-02-05 18:04:00,32.5,27.9,29.83,WNW,292,0.0,0.0,83,0.00,BKN,,0.00,0.0,WeatherDisplay:10.37,2013-02-05 23:04:00,
2013-02-05 18:09:00,32.1,27.5,29.84,WNW,292,0.0,0.0,83,0.00,BKN,,0.00,0.0,WeatherDisplay:10.37,2013-02-05 23:09:00,
2013-02-05 18:14:00,31.5,26.9,29.84,WNW,292,0.0,0.0,83,0.00,BKN,,0.00,0.0,WeatherDisplay:10.37,2013-02-05 23:14:00,
2013-02-05 18:19:00,31.5,27.2,29.84,WNW,292,0.0,0.0,84,0.00,BKN,,0.00,0.0,WeatherDisplay:10.37,2013-02-05 23:19:00,
2013-02-05 18:24:00,31.5,27.2,29.84,WNW,292,0.0,0.0,84,0.00,BKN,,0.00,0.0,WeatherDisplay:10.37,2013-02-05 23:24:00,
2013-02-05 18:29:00,31.3,27.0,29.84,WNW,292,0.0,0.0,84,0.00,BKN,,0.00,0.0,WeatherDisplay:10.37,2013-02-05 23:29:00,
2013-02-05 18:34:00,31.2,27.2,29.84,WNW,292,0.0,0.0,85,0.00,BKN,,0.00,0.0,WeatherDisplay:10.37,2013-02-05 23:34:00,
2013-02-05 18:39:00,31.2,27.2,29.84,WNW,292,0.0,0.0,85,0.00,BKN,,0.00,0.0,WeatherDisplay:10.37,2013-02-05 23:39:00,
2013-02-05 18:44:00,31.3,27.6,29.84,WNW,292,0.0,1.1,86,0.00,BKN,,0.00,0.0,WeatherDisplay:10.37,2013-02-05 23:44:00,
2013-02-05 18:49:00,31.2,27.5,29.84,WNW,292,0.0,0.0,86,0.00,BKN,,0.00,0.0,WeatherDisplay:10.37,2013-02-05 23:49:00,
2013-02-05 18:54:00,31.0,27.3,29.85,WNW,292,0.0,0.0,86,0.00,BKN,,0.00,0.0,WeatherDisplay:10.37,2013-02-05 23:54:00,
2013-02-05 18:59:00,30.9,27.2,29.85,WNW,292,0.0,0.0,86,0.00,BKN,,0.00,0.0,WeatherDisplay:10.37,2013-02-05 23:59:00,
2013-02-05 19:04:00,30.9,27.2,29.85,WNW,292,0.0,0.0,86,0.00,BKN,,0.00,0.0,WeatherDisplay:10.37,2013-02-06 00:04:00,
2013-02-05 19:10:00,31.0,27.6,29.85,WNW,292,0.0,0.0,87,0.00,BKN,,0.00,0.0,WeatherDisplay:10.37,2013-02-06 00:10:00,
2013-02-05 19:15:00,31.0,27.6,29.85,WNW,292,0.0,0.0,87,0.00,BKN,,0.00,0.0,WeatherDisplay:10.37,2013-02-06 00:15:00,
2013-02-05 19:20:00,30.9,27.5,29.85,WNW,292,0.0,0.0,87,0.00,BKN,,0.00,0.0,WeatherDisplay:10.37,2013-02-06 00:20:00,
2013-02-05 19:25:00,31.0,27.6,29.85,WNW,292,0.0,0.0,87,0.00,BKN,,0.00,0.0,WeatherDisplay:10.37,2013-02-06 00:25:00,
2013-02-05 19:30:00,31.0,27.9,29.85,WNW,292,0.0,0.0,88,0.00,BKN,,0.00,0.0,WeatherDisplay:10.37,2013-02-06 00:30:00,
2013-02-05 19:35:00,31.2,28.1,29.85,WNW,292,0.0,0.0,88,0.00,BKN,,0.00,0.0,WeatherDisplay:10.37,2013-02-06 00:35:00,
2013-02-05 19:40:00,31.2,28.1,29.85,WNW,292,0.0,0.0,88,0.00,BKN,,0.00,0.0,WeatherDisplay:10.37,2013-02-06 00:40:00,
2013-02-05 19:45:00,31.3,28.2,29.85,WNW,292,0.0,0.0,88,0.00,BKN,,0.00,0.0,WeatherDisplay:10.37,2013-02-06 00:45:00,
2013-02-05 19:50:00,31.3,28.2,29.86,WNW,292,0.0,0.0,88,0.00,BKN,,0.00,0.0,WeatherDisplay:10.37,2013-02-06 00:50:00,
2013-02-05 20:02:00,31.3,28.4,29.85,WNW,292,0.0,0.0,89,0.00,CLR,,0.00,0.0,WeatherDisplay:10.37,2013-02-06 01:02:00,
2013-02-05 20:49:00,31.0,28.1,29.87,WNW,292,0.0,0.0,89,0.00,BKN,,0.00,0.0,WeatherDisplay:10.37,2013-02-06 01:49:00,
2013-02-05 20:54:00,31.0,28.1,29.88,WNW,292,0.0,0.0,89,0.00,OVC,,0.00,0.0,WeatherDisplay:10.37,2013-02-06 01:54:00,
2013-02-05 21:12:00,31.5,28.9,29.88,WNW,292,0.0,0.0,90,0.00,OVC,,0.00,0.0,WeatherDisplay:10.37,2013-02-06 02:12:00,
2013-02-05 21:17:00,31.8,29.2,29.88,WNW,292,0.3,3.5,90,0.00,OVC,,0.00,0.0,WeatherDisplay:10.37,2013-02-06 02:17:00,
2013-02-05 21:22:00,31.8,29.2,29.89,WNW,292,0.3,1.1,90,0.00,OVC,,0.00,0.0,WeatherDisplay:10.37,2013-02-06 02:22:00,
2013-02-05 21:27:00,31.8,29.2,29.89,WNW,292,0.0,0.0,90,0.00,OVC,,0.00,0.0,WeatherDisplay:10.37,2013-02-06 02:27:00,
2013-02-05 21:32:00,31.9,29.3,29.89,WNW,292,0.0,0.0,90,0.00,OVC,,0.00,0.0,WeatherDisplay:10.37,2013-02-06 02:32:00,
2013-02-05 21:37:00,31.9,29.3,29.90,WNW,292,0.0,0.0,90,0.00,OVC,,0.00,0.0,WeatherDisplay:10.37,2013-02-06 02:37:00,
2013-02-05 21:42:00,31.9,29.3,29.90,WNW,292,0.0,0.0,90,0.00,OVC,,0.00,0.0,WeatherDisplay:10.37,2013-02-06 02:42:00,
2013-02-05 21:47:00,31.9,29.3,29.90,WNW,296,0.6,1.1,90,0.00,OVC,,0.00,0.0,WeatherDisplay:10.37,2013-02-06 02:47:00,
2013-02-05 21:52:00,31.9,29.3,29.90,WNW,296,0.5,1.5,90,0.00,OVC,,0.00,0.0,WeatherDisplay:10.37,2013-02-06 02:52:00,
2013-02-05 21:57:00,32.1,29.5,29.90,WNW,297,0.0,0.0,90,0.00,OVC,,0.00,0.0,WeatherDisplay:10.37,2013-02-06 02:57:00,
2013-02-05 22:02:00,32.2,29.9,29.90,WNW,297,0.0,0.0,91,0.00,BKN,,0.00,0.0,WeatherDisplay:10.37,2013-02-06 03:02:00,
2013-02-05 22:07:00,32.2,29.9,29.91,WNW,297,0.0,0.0,91,0.00,BKN,,0.00,0.0,WeatherDisplay:10.37,2013-02-06 03:07:00,
2013-02-05 22:12:00,32.4,30.1,29.91,WNW,297,0.0,0.0,91,0.00,BKN,,0.00,0.0,WeatherDisplay:10.37,2013-02-06 03:12:00,
2013-02-05 22:17:00,32.4,30.1,29.91,WNW,297,0.0,0.0,91,0.00,BKN,,0.00,0.0,WeatherDisplay:10.37,2013-02-06 03:17:00,
2013-02-05 22:22:00,32.4,30.1,29.91,WNW,297,0.0,0.0,91,0.00,BKN,,0.00,0.0,WeatherDisplay:10.37,2013-02-06 03:22:00,
2013-02-05 22:27:00,32.4,30.1,29.91,WNW,297,0.0,0.0,91,0.00,BKN,,0.00,0.0,WeatherDisplay:10.37,2013-02-06 03:27:00,
2013-02-05 22:32:00,32.5,30.2,29.91,WNW,297,0.0,0.0,91,0.00,BKN,,0.00,0.0,WeatherDisplay:10.37,2013-02-06 03:32:00,
2013-02-05 22:37:00,32.5,30.2,29.91,WNW,297,0.0,0.0,91,0.00,BKN,,0.00,0.0,WeatherDisplay:10.37,2013-02-06 03:37:00,
2013-02-05 22:42:00,32.5,30.2,29.91,WNW,297,0.0,0.0,91,0.00,BKN,,0.00,0.0,WeatherDisplay:10.37,2013-02-06 03:42:00,
2013-02-05 22:47:00,32.5,30.2,29.91,WNW,297,0.0,0.0,91,0.00,BKN,,0.00,0.0,WeatherDisplay:10.37,2013-02-06 03:47:00,
2013-02-05 22:52:00,32.5,30.2,29.91,WNW,297,0.0,0.0,91,0.00,BKN,,0.00,0.0,WeatherDisplay:10.37,2013-02-06 03:52:00,
2013-02-05 22:57:00,32.5,30.2,29.91,WNW,297,0.0,0.0,91,0.00,BKN,,0.00,0.0,WeatherDisplay:10.37,2013-02-06 03:57:00,
2013-02-05 23:02:00,32.5,30.4,29.90,WNW,297,0.0,0.0,92,0.00,BKN,,0.00,0.0,WeatherDisplay:10.37,2013-02-06 04:02:00,
2013-02-05 23:07:00,32.5,30.4,29.91,WNW,297,0.0,0.0,92,0.00,BKN,,0.00,0.0,WeatherDisplay:10.37,2013-02-06 04:07:00,
2013-02-05 23:12:00,32.5,30.4,29.91,WNW,297,0.0,0.0,92,0.00,BKN,,0.00,0.0,WeatherDisplay:10.37,2013-02-06 04:12:00,
2013-02-05 23:17:00,32.5,30.4,29.91,WNW,297,0.0,0.0,92,0.00,BKN,,0.00,0.0,WeatherDisplay:10.37,2013-02-06 04:17:00,
2013-02-05 23:22:00,32.5,30.4,29.91,WNW,297,0.0,0.0,92,0.00,OVC,,0.00,0.0,WeatherDisplay:10.37,2013-02-06 04:22:00,
2013-02-05 23:27:00,32.5,30.4,29.91,WNW,297,0.0,0.0,92,0.00,OVC,,0.00,0.0,WeatherDisplay:10.37,2013-02-06 04:27:00,
2013-02-05 23:32:00,32.5,30.4,29.91,WNW,297,0.0,0.0,92,0.00,OVC,,0.00,0.0,WeatherDisplay:10.37,2013-02-06 04:32:00,
2013-02-05 23:37:00,32.5,30.4,29.90,WNW,297,0.0,0.0,92,0.00,OVC,,0.00,0.0,WeatherDisplay:10.37,2013-02-06 04:37:00,
2013-02-05 23:42:00,32.5,30.4,29.90,WNW,297,0.0,0.0,92,0.00,OVC,,0.00,0.0,WeatherDisplay:10.37,2013-02-06 04:42:00,
2013-02-05 23:47:00,32.4,30.3,29.90,WNW,297,0.0,0.0,92,0.00,OVC,,0.00,0.0,WeatherDisplay:10.37,2013-02-06 04:47:00,
2013-02-05 23:52:00,32.4,30.3,29.90,WNW,297,0.0,0.0,92,0.00,OVC,,0.00,0.0,WeatherDisplay:10.37,2013-02-06 04:52:00,
2013-02-05 23:57:00,32.4,30.3,29.90,WNW,297,0.0,0.0,92,0.00,OVC,,0.00,0.0,WeatherDisplay:10.37,2013-02-06 04:57:00,